Location: Bon Acre
(42.6442°N, 73.5758°W)
Time: 15:14:55
(UTC+00:00)

Cosmos 44 Rocket - Pass Details

Date: 14 December 2025
Orbit: 635 x 743 km, 65.1° (Epoch: 19 January)

Event Time Altitude Azimuth Distance (km) Brightness Sun altitude
Rises 23:41:25 0° 329° (NNW) 3,161 7.0 -24.8°
Reaches altitude 10° 23:43:50 10° 334° (NNW) 2,246 6.1 -25.3°
Enters shadow 23:47:13 38° 356° (N) 1,119 4.2 -25.9°
